Tracking 21045 objects as of 4-Aug-2020
HD Live streaming from Space Station
objects crossing your sky now

RADUGA 4

Track RADUGA 4 now!
RADUGA 4 is classified as:


NORAD ID: 10987
Int'l Code: 1978-073A
Perigee: 35,736.4 km
Apogee: 35,819.4 km
Inclination: 10.0 °
Period: 1,435.3 minutes
Semi major axis: 42148 km
RCS: 1 m2 (large)
Launch date: July 18, 1978
Source: Commonwealth of Independent States (former USSR) (CIS)
Launch site: TYURATAM MISSILE AND SPACE COMPLEX (TTMTR)
aabbcc
Your satellite tracking list
Your tracking list is empty




NASA's NSSDC Master Catalog

Two Line Element Set (TLE):
1 10987U 78073A   20216.85118802 +.00000093 +00000-0 +00000-0 0  9996
2 10987 010.0163 305.1260 0009850 343.6903 020.5987 01.00328296098116
Source of the keplerian elements: AFSPC